NS7V-1 Weather Reports


time (UTC)temp
C
wind
direction
speed
KPH
gust
KPH
rain 1hr
cm
rain 24hr
cm
rain mn
cm
humidity
%
barometer
mb
20260503200521 17 45 3.2 12.9 0.00 0.00 0.00 74 1013.5
20260503195521 16 23 3.2 8.0 0.00 0.00 0.00 73 1013.5
20260503194521 16 45 4.8 9.7 0.00 0.00 0.00 73 1013.7
20260503193521 16 23 3.2 9.7 0.00 0.00 0.00 74 1013.7
20260503192541 16 45 3.2 8.0 0.00 0.00 0.00 73 1013.8
20260503191521 16 45 3.2 9.7 0.00 0.00 0.00 73 1013.8
20260503190521 16 45 3.2 8.0 0.00 0.00 0.00 73 1013.9
20260503185521 16 45 3.2 8.0 0.00 0.00 0.00 74 1013.8
20260503184521 16 45 3.2 8.0 0.00 0.00 0.00 74 1014.0
20260503183520 16 45 3.2 9.7 0.00 0.00 0.00 73 1014.2
20260503182521 16 68 3.2 8.0 0.00 0.00 0.00 74 1014.3
20260503181521 16 45 3.2 6.4 0.00 0.00 0.00 74 1014.2
20260503180521 16 45 3.2 9.7 0.00 0.00 0.00 75 1014.3
20260503175521 16 45 3.2 9.7 0.00 0.00 0.00 76 1014.4
20260503174521 16 45 3.2 6.4 0.00 0.00 0.00 78 1014.4
20260503173642 15 45 1.6 6.4 0.00 0.00 0.00 77 1014.4
20260503172544 15 45 3.2 8.0 0.00 0.00 0.00 77 1014.6
20260503171521 16 23 1.6 9.7 0.00 0.00 0.00 76 1014.6
20260503170521 15 45 1.6 8.0 0.00 0.00 0.00 77 1014.7
20260503150520 14 23 1.6 8.0 0.00 0.00 0.00 82 1015.0
20260503130520 11 0.0 4.8 0.00 0.03 0.00 95 1014.6
20260503110520 11 0.0 3.2 0.00 0.03 0.00 92 1014.7
20260503081520 12 0.0 1.6 0.00 0.03 0.00 83 1014.5
20260503080604 12 0.0 1.6 0.00 0.03 0.00 82 1014.4
20260503072522 13 0.0 1.6 0.00 0.03 0.00 80 1014.2
20260503071522 13 0.0 3.2 0.00 0.03 0.00 79 1014.2
20260503070521 13 0.0 3.2 0.00 0.03 0.00 79 1014.2
20260503054522 12 0.0 1.6 0.00 0.03 0.03 84 1014.0
20260503053520 11 0.0 1.6 0.00 0.03 0.03 85 1014.0
20260503052541 12 0.0 3.2 0.00 0.03 0.03 85 1014.1
20260503051522 12 0.0 1.6 0.00 0.03 0.03 84 1014.2
20260503050522 12 0.0 3.2 0.00 0.03 0.03 84 1014.2
20260503045522 12 0.0 3.2 0.00 0.03 0.03 83 1014.1
20260503044522 12 0.0 1.6 0.00 0.03 0.03 83 1014.1
20260503043523 12 0.0 1.6 0.00 0.03 0.03 81 1014.0
20260503042522 12 0.0 3.2 0.00 0.03 0.03 83 1014.0
20260503041542 12 0.0 1.6 0.00 0.03 0.03 83 1013.9
20260503040520 12 0.0 1.6 0.00 0.03 0.03 81 1013.8
20260503035522 12 0.0 1.6 0.00 0.03 0.03 81 1013.7
20260503034522 13 0.0 1.6 0.00 0.03 0.03 81 1013.5
20260503033521 13 0.0 3.2 0.00 0.03 0.03 82 1013.5
20260503032522 13 0.0 1.6 0.00 0.03 0.03 79 1013.4
20260503031542 13 0.0 3.2 0.00 0.03 0.03 79 1013.4
20260503030522 14 0.0 3.2 0.00 0.03 0.03 77 1013.3
20260503025522 15 0.0 1.6 0.00 0.03 0.03 73 1013.3
20260503024522 15 0.0 1.6 0.00 0.03 0.03 73 1013.2
20260503023522 15 0.0 1.6 0.00 0.03 0.03 70 1013.3
20260503022521 15 0.0 1.6 0.00 0.03 0.03 70 1013.4
20260503021522 16 0.0 1.6 0.00 0.03 0.03 70 1013.4
20260503020522 16 0.0 1.6 0.00 0.03 0.03 68 1013.5
20260503015542 16 0.0 3.2 0.00 0.03 0.03 68 1013.5
20260503014522 16 0.0 3.2 0.00 0.03 0.03 69 1013.6
20260503013521 16 23 1.6 3.2 0.00 0.03 0.03 64 1013.7
20260503012545 17 0.0 4.8 0.00 0.03 0.03 65 1013.8
20260503011521 17 0 1.6 6.4 0.00 0.03 0.03 65 1013.8
20260503010542 17 68 1.6 3.2 0.00 0.03 0.03 64 1013.8
20260503005521 17 23 1.6 6.4 0.00 0.03 0.03 64 1014.0
20260503004522 18 23 1.6 6.4 0.00 0.03 0.03 64 1014.0
20260503003601 18 45 1.6 8.0 0.00 0.03 0.03 63 1014.1
20260503002602 17 45 1.6 6.4 0.00 0.03 0.03 63 1014.2
20260503001522 17 23 1.6 6.4 0.00 0.03 0.03 63 1014.2
20260503000521 18 23 1.6 6.4 0.00 0.03 0.03 62 1014.3
20260502235521 17 45 3.2 6.4 0.00 0.03 0.03 62 1014.4
20260502234521 18 113 1.6 4.8 0.00 0.03 0.03 63 1014.5
20260502233522 18 23 1.6 6.4 0.00 0.03 0.03 64 1014.6
20260502232601 18 68 1.6 8.0 0.00 0.03 0.03 64 1014.7
20260502231521 17 23 1.6 8.0 0.00 0.03 0.03 66 1014.7
20260502230523 17 23 1.6 6.4 0.00 0.03 0.03 67 1014.8
20260502225521 17 90 1.6 4.8 0.00 0.03 0.03 71 1015.0
20260502224521 17 45 1.6 4.8 0.00 0.03 0.03 70 1015.1
20260502223521 17 23 1.6 6.4 0.00 0.03 0.03 70 1015.3
20260502222522 17 45 3.2 8.0 0.00 0.03 0.03 71 1015.4
20260502221521 17 45 3.2 9.7 0.00 0.03 0.03 71 1015.5
20260502220521 17 45 3.2 9.7 0.00 0.03 0.03 70 1015.6
20260502215521 17 45 3.2 9.7 0.00 0.03 0.03 71 1015.7
20260502214521 17 68 1.6 4.8 0.00 0.03 0.03 72 1015.9
20260502213521 16 23 3.2 9.7 0.00 0.03 0.03 74 1016.0
20260502212521 16 68 1.6 8.0 0.00 0.03 0.03 74 1016.2
20260502211601 16 225 1.6 6.4 0.00 0.03 0.03 75 1016.3
20260502210521 16 68 1.6 9.7 0.00 0.03 0.03 77 1016.3
20260502205521 16 45 1.6 8.0 0.00 0.03 0.03 79 1016.4
20260502204521 16 45 1.6 8.0 0.00 0.03 0.03 78 1016.5
20260502203521 15 23 3.2 8.0 0.00 0.03 0.03 78 1016.6
20260502202521 16 45 1.6 6.4 0.00 0.03 0.03 77 1016.7
20260502201521 15 23 3.2 8.0 0.00 0.03 0.03 78 1016.6